Location: Washington
(38.8950°N, 77.0370°W)
Time: 21:03:33
(UTC-04:00)

Amateur Radio Satellites - All Passes

Search period start: 30 July 2015 20:33
Search period end: 31 July 2015 20:33
Location: Washington, 38.8950°N, 77.0370°W

Satellite Date Start Highest point End Downlink Frequencies (MHz)
Time Altitude Azimuth
HO-68 30 Jul 20:37:54 20:44:58 70° 71° (ENE) 20:52:05 435.675
PHONESAT 2.4 30 Jul 20:41:23 20:44:19 25° 151° (SSE) 20:47:16 2401.200-2431.200
ISS 30 Jul 20:44:56 20:45:43 11° 129° (SE) 20:46:40 145.825
UWE-3 30 Jul 20:52:07 20:53:50 13° 65° (ENE) 20:55:47 435.000/436.395/437.385
VERMONT LUNAR 30 Jul 20:55:06 20:58:17 73° 352° (N) 21:01:28 437.305
Cosmos 2499 30 Jul 20:56:13 21:04:00 36° 273° (W) 21:11:42 435.465 / 435.565
COMPASS 1 30 Jul 20:57:55 21:01:59 50° 74° (ENE) 21:06:06 437.405
CUBEBUG 2 30 Jul 21:02:33 21:05:39 21° 69° (ENE) 21:08:54 437.445
Oscar 11 30 Jul 21:08:31 21:12:02 25° 70° (ENE) 21:15:38 145.826/435.025
SEEDS 30 Jul 21:09:56 21:14:10 90° 79° (E) 21:18:28 437.485
CUTE 1.7 + AOD 2 30 Jul 21:10:03 21:14:18 72° 259° (W) 21:18:35 437.475
STRAND 1 30 Jul 21:16:18 21:20:37 27° 292° (WNW) 21:24:49 437.568
CANX-2 30 Jul 21:18:18 21:22:27 51° 261° (W) 21:26:39 2200.000
BRITE-PL 30 Jul 21:20:23 21:23:14 16° 268° (W) 21:25:49 437.365/2234.400
HUMSAT D 30 Jul 21:33:32 21:34:35 11° 65° (ENE) 21:35:52 437.325/437.525
DOVE 4 30 Jul 21:35:16 21:38:57 29° 264° (W) 21:42:34 437.250
AUBIESAT-1 30 Jul 21:38:31 21:39:39 11° 92° (E) 21:41:06 437.475
DELFI C3 30 Jul 21:39:02 21:42:42 35° 72° (ENE) 21:46:27 145.870
GOMX 1 30 Jul 21:39:50 21:42:36 16° 268° (W) 21:45:09 467.674
AAUSAT CUBESAT 2 30 Jul 21:40:47 21:44:55 59° 260° (W) 21:49:07 437.432
PRISM 30 Jul 21:42:10 21:43:59 12° 295° (WNW) 21:45:36 437.425
CINEMA 3 30 Jul 21:56:26 22:00:20 39° 263° (W) 22:04:16 145.822/145.860
ZACube-1 30 Jul 22:05:35 22:09:42 66° 76° (ENE) 22:13:56 437.345
RS-15 30 Jul 22:09:21 22:20:07 72° 116° (ESE) 22:31:18 29.354- 29.394
Cosmos 2491 30 Jul 22:11:03 22:14:18 13° 57° (ENE) 22:18:15 435.465 / 435.565
PHONESAT 2.4 30 Jul 22:18:32 22:22:03 88° 168° (SSE) 22:25:35 2401.200-2431.200
ISS 30 Jul 22:18:33 22:21:47 70° 323° (NW) 22:25:03 145.825
UWE-3 30 Jul 22:25:52 22:29:56 53° 260° (W) 22:34:07 435.000/436.395/437.385
FUNcube-1 30 Jul 22:28:02 22:32:11 69° 259° (W) 22:36:26 145.935
HO-68 30 Jul 22:28:11 22:33:23 20° 269° (W) 22:38:17 435.675
VERMONT LUNAR 30 Jul 22:31:58 22:35:09 70° 7° (N) 22:38:19 437.305
COMPASS 1 30 Jul 22:36:04 22:38:00 12° 271° (W) 22:39:43 437.405
CUBEBUG 2 30 Jul 22:38:32 22:42:12 29° 265° (W) 22:45:54 437.445
M-CUBED/EXP-1 PRIME 30 Jul 22:39:10 22:43:57 61° 105° (ESE) 22:48:36 437.505
AISAT 30 Jul 22:39:45 22:43:27 28° 70° (ENE) 22:47:14 437.250
Oscar 11 30 Jul 22:44:27 22:48:08 26° 265° (W) 22:51:48 145.826/435.025
UKube-1 30 Jul 22:44:52 22:49:00 48° 73° (ENE) 22:53:11 .
CUBEBUG 1 30 Jul 22:59:14 23:02:43 24° 70° (ENE) 23:06:17 437.445
UNISAT 6 30 Jul 23:03:29 23:07:34 30° 95° (E) 23:11:43 437.425
HUMSAT D 30 Jul 23:05:45 23:09:50 61° 260° (W) 23:13:59 437.325/437.525
AUBIESAT-1 30 Jul 23:10:10 23:14:57 75° 289° (WNW) 23:19:34 437.475
DX 1 30 Jul 23:10:15 23:14:36 78° 257° (WSW) 23:18:57 434.975-435.025
DELFI C3 30 Jul 23:15:15 23:17:55 16° 268° (W) 23:20:28 145.870
50 SAT 30 Jul 23:17:34 23:21:27 84° 74° (ENE) 23:25:22 437.505
VELOX 1 30 Jul 23:18:31 23:22:54 72° 75° (ENE) 23:27:19 145.980
POLYITAN 1 30 Jul 23:18:39 23:21:03 15° 91° (E) 23:23:38 437.675
AIST 1 30 Jul 23:23:15 23:27:05 32° 76° (ENE) 23:30:56
ESTCUBE 1 30 Jul 23:23:47 23:28:13 56° 74° (ENE) 23:32:41 437.505/2401.250
POPSAT HIP 1 30 Jul 23:35:36 23:38:58 23° 94° (E) 23:42:25 437.405
SPROUT 30 Jul 23:41:43 23:44:49 21° 69° (ENE) 23:48:03 437.525
QB50P2 30 Jul 23:42:37 23:46:18 28° 96° (E) 23:50:02 145.880/145.840
TIGRISAT 30 Jul 23:47:03 23:51:45 85° 100° (E) 23:56:28 435.000
ANTELSAT 30 Jul 23:48:09 23:52:52 90° 93° (E) 23:57:35 437.575/2403.000
BUGSAT 1 30 Jul 23:48:27 23:51:18 19° 93° (E) 23:54:17 437.445
BEESAT 2 30 Jul 23:55:45 23:59:21 31° 114° (ESE) 00:03:02 435.950
PHONESAT 2.4 30 Jul 23:56:38 00:00:08 65° 3° (N) 00:03:38 2401.200-2431.200
ISS 30 Jul 23:56:47 23:58:43 15° 341° (NNW) 00:00:38 145.825
TISAT 1 30 Jul 23:59:51 00:02:50 20° 69° (ENE) 00:05:56 437.305
Cosmos 2491 31 Jul 00:04:30 00:13:12 71° 80° (E) 00:21:54 435.465 / 435.565
DUCHIFAT 1 31 Jul 00:08:39 00:12:48 53° 100° (E) 00:16:57 145.980
VERMONT LUNAR 31 Jul 00:08:49 00:11:50 40° 204° (SSW) 00:14:47 437.305
QB50P1 31 Jul 00:10:40 00:14:52 60° 100° (E) 00:19:06 145.935-145.965
NANOSAT C BR1 31 Jul 00:12:32 00:16:45 62° 101° (E) 00:20:57 145.865
M-CUBED/EXP-1 PRIME 31 Jul 00:15:13 00:18:14 16° 300° (WNW) 00:21:03 437.505
AISAT 31 Jul 00:16:21 00:20:01 25° 265° (W) 00:23:37 437.250
UKube-1 31 Jul 00:23:10 00:25:27 14° 269° (W) 00:27:32 .
RS-15 31 Jul 00:23:38 00:33:35 36° 322° (NW) 00:43:44 29.354- 29.394
YUBILEINY 31 Jul 00:25:01 00:32:59 44° 89° (E) 00:41:09 435.215
CUBEBUG 1 31 Jul 00:35:12 00:38:59 27° 265° (W) 00:42:42 437.445
BEESAT 3 31 Jul 00:37:23 00:41:26 66° 303° (WNW) 00:45:31 437.485
UNISAT 6 31 Jul 00:40:18 00:44:15 27° 290° (WNW) 00:48:07 437.425
POLYITAN 1 31 Jul 00:53:08 00:57:12 42° 287° (WNW) 01:01:14 437.675
AIST 1 31 Jul 01:01:35 01:04:31 18° 272° (W) 01:07:18
ESTCUBE 1 31 Jul 01:03:21 01:05:30 13° 271° (W) 01:07:25 437.505/2401.250
POPSAT HIP 1 31 Jul 01:11:10 01:14:50 28° 289° (WNW) 01:18:26 437.405
SPROUT 31 Jul 01:16:53 01:20:44 32° 264° (W) 01:24:33 437.525
AIST 2 31 Jul 01:17:52 01:22:00 54° 117° (ESE) 01:26:10 435.215
QB50P2 31 Jul 01:18:41 01:22:04 23° 291° (WNW) 01:25:22 145.880/145.840
BUGSAT 1 31 Jul 01:23:14 01:26:51 31° 288° (WNW) 01:30:26 437.445
Oscar 19 31 Jul 01:25:25 01:28:07 15° 89° (E) 01:31:06 437.125/150
TIGRISAT 31 Jul 01:27:15 01:27:54 10° 297° (WNW) 01:28:16 435.000
BEESAT 31 Jul 01:29:06 01:33:21 33° 70° (ENE) 01:37:41 436.000
BEESAT 2 31 Jul 01:34:03 01:37:26 24° 311° (NW) 01:40:48 435.950
TISAT 1 31 Jul 01:34:39 01:38:25 31° 263° (W) 01:42:09 437.305
PHONESAT 2.4 31 Jul 01:34:41 01:38:09 62° 200° (SSW) 01:41:36 2401.200-2431.200
Cosmos 2504 31 Jul 01:43:22 01:44:59 11° 78° (ENE) 01:47:14 435.465 / 435.565
DUCHIFAT 1 31 Jul 01:46:10 01:48:12 13° 294° (WNW) 01:50:01 145.980
QB50P1 31 Jul 01:48:38 01:50:17 12° 295° (WNW) 01:51:43 145.935-145.965
SWISSCUBE 31 Jul 01:48:55 01:53:38 59° 73° (ENE) 01:58:22 437.505
NANOSAT C BR1 31 Jul 01:50:38 01:52:07 11° 295° (WNW) 01:53:23 145.865
O/OREOS (USA 219) 31 Jul 01:57:25 02:01:41 48° 107° (ESE) 02:06:03 437.305
Cosmos 2491 31 Jul 02:02:54 02:09:20 23° 277° (W) 02:15:22 435.465 / 435.565
ITUPSAT 1 31 Jul 02:09:03 02:13:53 85° 74° (ENE) 02:18:44 437.325
Gurwin Techsat 1B 31 Jul 02:13:27 02:15:23 12° 88° (E) 02:17:41 435.225
YUBILEINY 31 Jul 02:21:55 02:29:57 38° 288° (WNW) 02:37:55 435.215
STARS 31 Jul 02:24:01 02:25:21 11° 64° (ENE) 02:26:55 437.465
ITAMSAT 1 31 Jul 02:42:25 02:46:13 21° 93° (E) 02:50:10 435.822/435.867
RS-15 31 Jul 02:43:42 02:50:50 18° 355° (N) 02:58:04 29.354- 29.394
KKS-1 31 Jul 02:44:28 02:48:21 32° 71° (ENE) 02:52:20 437.445
AIST 2 31 Jul 02:58:04 03:00:55 17° 315° (NW) 03:03:40 435.215
Oscar 19 31 Jul 03:02:52 03:07:58 62° 287° (WNW) 03:13:05 437.125/150
BEESAT 31 Jul 03:07:20 03:11:16 24° 266° (W) 03:15:05 436.000
ISS 31 Jul 03:11:38 03:13:47 16° 21° (NNE) 03:15:59 145.825
PHONESAT 2.4 31 Jul 03:13:36 03:15:43 15° 214° (SSW) 03:17:45 2401.200-2431.200
AO-7 31 Jul 03:22:47 03:24:50 11° 85° (E) 03:27:40 29.400- 29.500
JAS-2 31 Jul 03:25:39 03:32:23 32° 92° (E) 03:39:11 435.910
MOZHAYETS 4 31 Jul 03:27:46 03:29:08 11° 64° (ENE) 03:30:45
Cosmos 2504 31 Jul 03:28:54 03:35:56 80° 95° (E) 03:43:31 435.465 / 435.565
SWISSCUBE 31 Jul 03:29:25 03:31:56 14° 270° (W) 03:34:11 437.505
O/OREOS (USA 219) 31 Jul 03:38:33 03:41:28 16° 305° (NW) 03:44:15 437.305
Gurwin Techsat 1B 31 Jul 03:50:44 03:56:03 75° 286° (WNW) 04:01:21 435.225
STARS 31 Jul 03:56:58 04:01:18 65° 258° (WSW) 04:05:40 437.465
ITAMSAT 1 31 Jul 04:21:03 04:25:58 43° 289° (WNW) 04:30:49 435.822/435.867
KKS-1 31 Jul 04:21:39 04:25:04 21° 266° (W) 04:28:24 437.445
ISS 31 Jul 04:47:20 04:50:37 88° 226° (SW) 04:53:52 145.825
RS-15 31 Jul 04:59:33 05:08:51 27° 30° (NNE) 05:18:46 29.354- 29.394
MOZHAYETS 4 31 Jul 05:01:10 05:05:48 74° 259° (WSW) 05:10:29
DANDE 31 Jul 05:04:19 05:07:48 57° 99° (E) 05:10:39 436.750
GONETS M04 31 Jul 05:09:47 05:14:41 17° 80° (E) 05:20:06
JAS-2 31 Jul 05:10:05 05:17:41 55° 289° (WNW) 05:25:09 435.910
AO-7 31 Jul 05:10:58 05:19:18 72° 105° (ESE) 05:27:35 29.400- 29.500
CUBESAT XI-V 31 Jul 05:17:08 05:19:26 14° 65° (ENE) 05:21:56 437.345
HORYU 2 31 Jul 05:18:43 05:23:14 72° 285° (WNW) 05:27:42 437.375
Cosmos 2504 31 Jul 05:24:42 05:29:20 17° 298° (WNW) 05:33:47 435.465 / 435.565
CUSAT 1 31 Jul 05:34:45 05:37:10 21° 283° (WNW) 05:39:19 437.405
Cubesat XI-IV 31 Jul 06:23:16 06:26:42 18° 91° (E) 06:30:20 437.490
JUGNU 31 Jul 06:40:40 06:42:12 11° 183° (S) 06:43:43 437.505
STRAND 1 31 Jul 06:51:28 06:56:18 43° 71° (ENE) 07:01:10 437.568
CUBESAT XI-V 31 Jul 06:51:47 06:56:25 59° 260° (W) 07:01:04 437.345
PRISM 31 Jul 06:53:43 06:57:27 33° 71° (ENE) 07:01:14 437.425
JAS-2 31 Jul 06:59:21 07:01:17 11° 306° (NW) 07:02:40 435.910
GONETS M04 31 Jul 07:01:48 07:10:32 86° 277° (W) 07:19:17
AO-7 31 Jul 07:04:51 07:11:28 26° 303° (WNW) 07:17:49 29.400- 29.500
RS-15 31 Jul 07:11:52 07:23:42 77° 56° (NE) 07:35:59 29.354- 29.394
CUTE-I 31 Jul 07:18:16 07:23:31 60° 101° (E) 07:28:46 437.470
Cosmos 2499 31 Jul 07:38:31 07:45:01 37° 87° (E) 07:52:05 435.465 / 435.565
BRITE-PL 31 Jul 07:46:50 07:48:56 13° 91° (E) 07:51:21 437.365/2234.400
Cubesat XI-IV 31 Jul 08:02:01 08:07:13 54° 288° (WNW) 08:12:21 437.490
GOMX 1 31 Jul 08:04:04 08:05:54 12° 90° (E) 08:08:04 467.674
HO-68 31 Jul 08:10:11 08:12:37 12° 86° (E) 08:15:36 435.675
BEESAT 2 31 Jul 08:16:26 08:18:54 16° 44° (NE) 08:21:29 435.950
AUBIESAT-1 31 Jul 08:25:07 08:26:15 11° 57° (ENE) 08:27:38 437.475
PRISM 31 Jul 08:29:57 08:32:59 19° 267° (W) 08:35:55 437.425
SRMSAT 31 Jul 08:30:10 08:31:44 11° 183° (S) 08:33:16 437.500
STRAND 1 31 Jul 08:31:47 08:35:43 21° 267° (W) 08:39:31 437.568
SO-50 31 Jul 08:38:49 08:39:16 10° 107° (ESE) 08:40:04 436.795
SEEDS 31 Jul 08:56:40 08:59:19 16° 91° (E) 09:02:06 437.485
BEESAT 3 31 Jul 08:57:02 09:00:57 47° 55° (NE) 09:04:49 437.485
CUTE 1.7 + AOD 2 31 Jul 08:57:12 09:00:26 21° 93° (E) 09:03:46 437.475
CUTE-I 31 Jul 08:59:41 09:03:10 17° 296° (WNW) 09:06:26 437.470
GONETS M04 31 Jul 09:03:31 09:08:56 17° 300° (WNW) 09:13:51
CANX-2 31 Jul 09:05:01 09:08:46 29° 95° (E) 09:12:32 2200.000
PCSat 31 Jul 09:23:30 09:28:37 46° 112° (ESE) 09:33:48 145.827
BRITE-PL 31 Jul 09:23:32 09:27:46 51° 285° (WNW) 09:32:17 437.365/2234.400
AAUSAT CUBESAT 2 31 Jul 09:25:26 09:28:46 23° 94° (E) 09:32:08 437.432
RS-15 31 Jul 09:25:35 09:35:21 29° 255° (WSW) 09:44:50 29.354- 29.394
M-CUBED/EXP-1 PRIME 31 Jul 09:25:56 09:29:50 59° 70° (ENE) 09:34:07 437.505
Cosmos 2499 31 Jul 09:31:17 09:38:07 39° 288° (WNW) 09:45:23 435.465 / 435.565
DOVE 4 31 Jul 09:33:47 09:38:22 73° 100° (E) 09:43:16 437.250
GOMX 1 31 Jul 09:39:58 09:44:24 59° 285° (WNW) 09:49:08 467.674
AIST 2 31 Jul 09:41:03 09:44:33 25° 49° (NE) 09:48:03 435.215
CINEMA 3 31 Jul 09:51:24 09:55:57 50° 99° (E) 10:00:41 145.822/145.860
BEESAT 2 31 Jul 09:53:20 09:57:19 53° 243° (WSW) 10:01:11 435.950
HO-68 31 Jul 09:54:20 10:01:34 81° 105° (ESE) 10:08:46 435.675
AUBIESAT-1 31 Jul 09:56:22 10:00:20 71° 255° (WSW) 10:04:38 437.475
ZACube-1 31 Jul 09:56:30 09:59:02 15° 90° (E) 10:01:47 437.345
UNISAT 6 31 Jul 10:01:55 10:05:12 22° 68° (ENE) 10:08:39 437.425
POLYITAN 1 31 Jul 10:12:44 10:13:14 10° 64° (ENE) 10:13:58 437.675
SO-50 31 Jul 10:14:25 10:19:10 83° 302° (WNW) 10:24:05 436.795
UWE-3 31 Jul 10:16:39 10:20:48 33° 96° (E) 10:25:02 435.000/436.395/437.385
FUNcube-1 31 Jul 10:17:45 10:21:29 25° 94° (E) 10:25:17 145.935
COMPASS 1 31 Jul 10:17:50 10:22:04 70° 284° (WNW) 10:26:14 437.405
POPSAT HIP 1 31 Jul 10:28:13 10:30:37 16° 67° (ENE) 10:33:12 437.405
CUBEBUG 2 31 Jul 10:29:36 10:34:11 59° 100° (E) 10:38:52 437.445
SEEDS 31 Jul 10:31:18 10:35:18 38° 287° (WNW) 10:39:13 437.485
Oscar 11 31 Jul 10:32:08 10:36:27 59° 100° (E) 10:40:45 145.826/435.025
CUTE 1.7 + AOD 2 31 Jul 10:32:36 10:36:24 30° 289° (WNW) 10:40:08 437.475
QB50P2 31 Jul 10:35:00 10:37:57 19° 68° (ENE) 10:41:01 145.880/145.840
BEESAT 3 31 Jul 10:36:22 10:38:31 14° 250° (WSW) 10:40:29 437.485
YUBILEINY 31 Jul 10:37:18 10:43:13 20° 63° (ENE) 10:49:34 435.215
BUGSAT 1 31 Jul 10:39:00 10:40:24 12° 66° (ENE) 10:42:02 437.445
CANX-2 31 Jul 10:41:08 10:44:34 23° 291° (WNW) 10:47:52 2200.000
TIGRISAT 31 Jul 10:44:35 10:48:50 62° 75° (ENE) 10:53:13 435.000
ANTELSAT 31 Jul 10:45:52 10:50:09 67° 76° (ENE) 10:54:35 437.575/2403.000
HUMSAT D 31 Jul 10:51:19 10:54:46 23° 94° (E) 10:58:18 437.325/437.525
DELFI C3 31 Jul 10:53:41 10:57:45 72° 101° (E) 11:01:46 145.870
50 SAT 31 Jul 10:56:46 10:57:29 11° 89° (E) 10:58:26 437.505
DUCHIFAT 1 31 Jul 10:59:53 11:03:37 33° 72° (ENE) 11:07:24 145.980
DX 1 31 Jul 11:00:40 11:03:43 19° 93° (E) 11:06:56 434.975-435.025
AAUSAT CUBESAT 2 31 Jul 11:00:45 11:04:21 27° 289° (WNW) 11:07:51 437.432
QB50P1 31 Jul 11:02:13 11:06:04 37° 72° (ENE) 11:09:58 145.935-145.965
NANOSAT C BR1 31 Jul 11:03:51 11:07:43 38° 72° (ENE) 11:11:38 145.865
M-CUBED/EXP-1 PRIME 31 Jul 11:04:22 11:05:13 10° 269° (W) 11:05:49 437.505
PCSat 31 Jul 11:07:45 11:12:17 26° 310° (NW) 11:16:43 145.827
VELOX 1 31 Jul 11:11:37 11:14:01 15° 91° (E) 11:16:37 145.980
Cosmos 2491 31 Jul 11:12:26 11:16:32 15° 79° (E) 11:21:17 435.465 / 435.565
DOVE 4 31 Jul 11:14:02 11:15:43 12° 294° (WNW) 11:17:11 437.250
AIST 2 31 Jul 11:19:28 11:23:07 29° 246° (WSW) 11:26:40 435.215
ESTCUBE 1 31 Jul 11:19:37 11:21:30 13° 89° (E) 11:23:38 437.505/2401.250
CINEMA 3 31 Jul 11:29:45 11:32:50 17° 292° (WNW) 11:35:48 145.822/145.860
ZACube-1 31 Jul 11:31:17 11:35:41 49° 286° (WNW) 11:40:06 437.345
UNISAT 6 31 Jul 11:37:57 11:41:50 31° 265° (W) 11:45:45 437.425
HO-68 31 Jul 11:43:38 11:48:34 20° 301° (WNW) 11:53:14 435.675
POLYITAN 1 31 Jul 11:44:28 11:48:38 67° 259° (WSW) 11:52:50 437.675
AIST 1 31 Jul 11:51:56 11:55:10 21° 89° (E) 11:58:31
UWE-3 31 Jul 11:53:29 11:57:10 23° 291° (WNW) 12:00:46 435.000/436.395/437.385
FUNcube-1 31 Jul 11:53:50 11:57:46 29° 289° (WNW) 12:01:42 145.935
SO-50 31 Jul 11:58:04 12:00:33 14° 322° (NW) 12:02:55 436.795
POPSAT HIP 1 31 Jul 12:02:11 12:06:10 42° 261° (W) 12:10:10 437.405
AISAT 31 Jul 12:07:07 12:11:31 67° 101° (E) 12:15:54 437.250
CUBEBUG 2 31 Jul 12:07:56 12:10:27 14° 294° (WNW) 12:12:48 437.445
O/OREOS (USA 219) 31 Jul 12:08:20 12:12:56 77° 68° (ENE) 12:17:32 437.305
UKube-1 31 Jul 12:09:15 12:13:34 76° 285° (WNW) 12:17:52 .
QB50P2 31 Jul 12:09:48 12:13:38 33° 263° (W) 12:17:27 145.880/145.840
Oscar 11 31 Jul 12:10:16 12:12:11 12° 295° (WNW) 12:13:53 145.826/435.025
BUGSAT 1 31 Jul 12:11:31 12:15:29 52° 260° (W) 12:19:26 437.445
CUBEBUG 1 31 Jul 12:24:27 12:28:43 57° 100° (E) 12:32:59 437.445
TIGRISAT 31 Jul 12:25:11 12:26:08 10° 272° (W) 12:26:47 435.000
HUMSAT D 31 Jul 12:26:46 12:30:30 28° 289° (WNW) 12:34:10 437.325/437.525
50 SAT 31 Jul 12:28:33 12:32:26 52° 286° (WNW) 12:36:17 437.505
YUBILEINY 31 Jul 12:32:28 12:41:19 83° 264° (W) 12:50:09 435.215
DX 1 31 Jul 12:36:09 12:40:05 34° 289° (WNW) 12:43:59 434.975-435.025
DUCHIFAT 1 31 Jul 12:36:33 12:39:32 18° 267° (W) 12:42:24 145.980
QB50P1 31 Jul 12:39:21 12:42:07 17° 268° (W) 12:44:44 145.935-145.965
Oscar 19 31 Jul 12:40:59 12:44:32 20° 66° (ENE) 12:48:16 437.125/150
NANOSAT C BR1 31 Jul 12:41:03 12:43:45 16° 269° (W) 12:46:17 145.865
VELOX 1 31 Jul 12:46:38 12:50:52 46° 287° (WNW) 12:55:03 145.980
ESTCUBE 1 31 Jul 12:54:23 12:58:47 55° 286° (WNW) 13:03:09 437.505/2401.250
Cosmos 2491 31 Jul 13:03:29 13:12:16 85° 97° (E) 13:21:04 435.465 / 435.565
SPROUT 31 Jul 13:04:11 13:08:19 45° 99° (E) 13:12:28 437.525
Cosmos 2504 31 Jul 13:16:26 13:23:01 26° 68° (ENE) 13:30:02 435.465 / 435.565
TISAT 1 31 Jul 13:19:47 13:23:46 40° 98° (E) 13:27:45 437.305
AIST 1 31 Jul 13:28:52 13:32:41 28° 285° (WNW) 13:36:26
Gurwin Techsat 1B 31 Jul 13:32:44 13:36:18 19° 65° (ENE) 13:40:03 435.225
JAS-2 31 Jul 13:41:51 13:42:38 10° 53° (NE) 13:43:51 435.910
AISAT 31 Jul 13:46:02 13:47:36 11° 296° (WNW) 13:48:56 437.250
SWISSCUBE 31 Jul 13:51:45 13:54:40 16° 91° (E) 13:57:45 437.505
ITAMSAT 1 31 Jul 13:59:02 14:03:27 30° 68° (ENE) 14:07:58 435.822/435.867
CUBEBUG 1 31 Jul 14:02:39 14:04:38 13° 295° (WNW) 14:06:25 437.445
ITUPSAT 1 31 Jul 14:11:36 14:15:24 24° 94° (E) 14:19:17 437.325
Oscar 19 31 Jul 14:18:39 14:23:35 48° 261° (W) 14:28:32 437.125/150
AO-7 31 Jul 14:19:35 14:24:45 19° 53° (NE) 14:30:17 29.400- 29.500
CUSAT 1 31 Jul 14:28:36 14:29:18 10° 72° (ENE) 14:30:21 437.405
YUBILEINY 31 Jul 14:32:21 14:36:58 15° 281° (WNW) 14:40:57 435.215
SPROUT 31 Jul 14:41:30 14:44:04 15° 293° (WNW) 14:46:28 437.525
TISAT 1 31 Jul 14:56:33 14:59:14 16° 293° (WNW) 15:01:47 437.305
Cosmos 2491 31 Jul 15:04:20 15:10:27 19° 298° (WNW) 15:16:08 435.465 / 435.565
Cosmos 2504 31 Jul 15:07:35 15:15:56 67° 267° (W) 15:24:26 435.465 / 435.565
BEESAT 31 Jul 15:07:37 15:12:26 86° 283° (WNW) 15:17:11 436.000
Gurwin Techsat 1B 31 Jul 15:10:43 15:15:54 53° 260° (W) 15:21:07 435.225
JAS-2 31 Jul 15:20:24 15:26:17 64° 72° (ENE) 15:33:03 435.910
SWISSCUBE 31 Jul 15:28:14 15:32:50 48° 288° (WNW) 15:37:23 437.505
ITAMSAT 1 31 Jul 15:38:13 15:42:54 32° 264° (W) 15:47:32 435.822/435.867
DANDE 31 Jul 15:42:14 15:45:45 37° 80° (E) 15:50:22 436.750
STARS 31 Jul 15:48:18 15:51:53 24° 95° (E) 15:55:34 437.465
ITUPSAT 1 31 Jul 15:49:04 15:53:22 33° 290° (WNW) 15:57:35 437.325
CUSAT 1 31 Jul 16:07:43 16:11:52 66° 262° (W) 16:17:25 437.405
AO-7 31 Jul 16:08:08 16:16:30 84° 71° (ENE) 16:24:56 29.400- 29.500
KKS-1 31 Jul 16:12:32 16:17:02 80° 103° (ESE) 16:21:29 437.445
HORYU 2 31 Jul 16:15:25 16:19:52 89° 77° (ENE) 16:24:22 437.375
MOZHAYETS 4 31 Jul 16:57:59 17:01:58 29° 95° (E) 17:05:59
CUTE-I 31 Jul 17:03:25 17:04:48 11° 61° (ENE) 17:06:31 437.470
Cosmos 2504 31 Jul 17:04:35 17:06:54 11° 283° (WNW) 17:08:27 435.465 / 435.565
JAS-2 31 Jul 17:07:57 17:12:12 19° 274° (W) 17:16:30 435.910
SO-50 31 Jul 17:09:09 17:10:29 11° 35° (NE) 17:12:03 436.795
GONETS M04 31 Jul 17:13:47 17:21:59 45° 74° (ENE) 17:30:18
STARS 31 Jul 17:24:31 17:28:20 28° 290° (WNW) 17:32:04 437.465
DANDE 31 Jul 17:26:32 17:28:53 14° 264° (W) 17:31:20 436.750
Cosmos 2499 31 Jul 17:31:55 17:35:38 14° 58° (ENE) 17:40:04 435.465 / 435.565
Cubesat XI-IV 31 Jul 17:43:48 17:48:12 27° 67° (ENE) 17:52:44 437.490
AO-7 31 Jul 18:04:39 18:10:22 19° 270° (W) 18:15:38 29.400- 29.500
PCSat 31 Jul 18:12:41 18:17:24 30° 51° (NE) 18:22:10 145.827
VERMONT LUNAR 31 Jul 18:16:56 18:19:24 21° 150° (SSE) 18:21:54 437.305
MOZHAYETS 4 31 Jul 18:35:14 18:39:08 26° 290° (WNW) 18:42:53
CUTE-I 31 Jul 18:38:48 18:44:10 86° 79° (E) 18:49:35 437.470
SO-50 31 Jul 18:47:12 18:52:08 63° 56° (ENE) 18:56:55 436.795
CUBESAT XI-V 31 Jul 18:49:53 18:54:08 36° 97° (E) 18:58:23 437.345
BRITE-PL 31 Jul 18:57:38 18:59:41 14° 68° (ENE) 19:01:54 437.365/2234.400
STRAND 1 31 Jul 19:04:32 19:07:26 16° 90° (E) 19:10:34 437.568
GONETS M04 31 Jul 19:10:53 19:18:44 38° 273° (W) 19:26:26
GOMX 1 31 Jul 19:13:05 19:13:55 11° 66° (ENE) 19:14:58 467.674
Cosmos 2499 31 Jul 19:21:56 19:30:41 71° 80° (E) 19:39:33 435.465 / 435.565
Cubesat XI-IV 31 Jul 19:23:13 19:28:11 37° 263° (W) 19:33:06 437.490
SEEDS 31 Jul 19:49:31 19:50:23 11° 65° (ENE) 19:51:30 437.485
CUTE 1.7 + AOD 2 31 Jul 19:50:02 19:52:09 14° 66° (ENE) 19:54:29 437.475
VERMONT LUNAR 31 Jul 19:52:42 19:55:53 83° 161° (SSE) 19:59:04 437.305
PCSat 31 Jul 19:55:54 20:00:54 38° 249° (WSW) 20:05:50 145.827
PHONESAT 2.4 31 Jul 19:57:09 19:59:43 19° 149° (SSE) 20:02:20 2401.200-2431.200
CANX-2 31 Jul 19:57:25 20:00:21 19° 68° (ENE) 20:03:26 2200.000
PRISM 31 Jul 20:11:57 20:16:02 64° 101° (E) 20:20:05 437.425
AAUSAT CUBESAT 2 31 Jul 20:16:05 20:18:16 14° 67° (ENE) 20:20:38 437.432
CUTE-I 31 Jul 20:24:00 20:25:04 10° 273° (W) 20:25:43 437.470
